This is the latest recevied weather packets stored in our database for station/object NK7E-1. If no packets are shown the sender has not sent any weather packets the latest 10 day(s).
| Time | Temp. | Humidity | Pressure | Rain* | Wind** | Luminosity | Snow |
|---|---|---|---|---|---|---|---|
| 1777679399 | 28.89° C | 16% | 1010.7 hPa | 0 mm | - | - | - |
| 1777678799 | 28.89° C | 16% | 1010.6 hPa | 0 mm | - | - | - |
| 1777678199 | 29.44° C | 17% | 1010.7 hPa | 0 mm | - | - | - |
| 1777677599 | 29.44° C | 17% | 1010.7 hPa | 0 mm | - | - | - |
| 1777676999 | 29.44° C | 15% | 1010.7 hPa | 0 mm | - | - | - |
| 1777676399 | 28.89° C | 16% | 1010.8 hPa | 0 mm | - | - | - |
| 1777675799 | 28.89° C | 16% | 1010.8 hPa | 0 mm | - | - | - |
| 1777675199 | 29.44° C | 16% | 1010.9 hPa | 0 mm | - | - | - |
| 1777674600 | 28.89° C | 17% | 1011.1 hPa | 0 mm | - | - | - |
| 1777674000 | 28.89° C | 18% | 1011.1 hPa | 0 mm | - | - | - |
| 1777673399 | 28.33° C | 18% | 1011.3 hPa | 0 mm | - | - | - |
| 1777672802 | 29.44° C | 18% | 1011.5 hPa | 0 mm | - | - | - |
| 1777672201 | 29.44° C | 18% | 1011.6 hPa | 0 mm | - | - | - |
| 1777671600 | 29.44° C | 18% | 1011.7 hPa | 0 mm | - | - | - |
| 1777671001 | 29.44° C | 19% | 1011.8 hPa | 0 mm | - | - | - |
| 1777670400 | 28.33° C | 21% | 1011.9 hPa | 0 mm | - | - | - |
| 1777669801 | 28.33° C | 21% | 1012.1 hPa | 0 mm | - | - | - |
| 1777669199 | 28.89° C | 19% | 1012.2 hPa | 0 mm | - | - | - |
| 1777668599 | 27.78° C | 20% | 1012.2 hPa | 0 mm | - | - | - |
| 1777667999 | 28.33° C | 21% | 1012.4 hPa | 0 mm | - | - | - |
| 1777667399 | 27.78° C | 21% | 1012.5 hPa | 0 mm | - | - | - |
| 1777666799 | 27.78° C | 22% | 1012.6 hPa | 0 mm | - | - | - |
| 1777666199 | 27.78° C | 22% | 1012.6 hPa | 0 mm | - | - | - |
| 1777665602 | 28.33° C | 21% | 1012.6 hPa | 0 mm | - | - | - |
| 1777664999 | 27.78° C | 22% | 1012.8 hPa | 0 mm | - | - | - |
* Rain latest hour (hover to see other rain measurements)
** Current wind speed in m/s (hover to see current wind gust speed)